[[{"header":{"parameterUnit":"m.s-1","parameterCategory":1,"la1":30.2991,"la2":30.254,"lo1":-89.0895,"lo2":-89.0444,"dy":0.0017,"dx":0.0017,"nx":28,"ny":28,"refTime":"2025-08-02T21:00:00:Z","depth":0,"parameterNumber":2,"parameterNumberName":"U-component_of_WINDS"},"data":[0,0,0,0,0,0,0,0,0,0,0,0,0,0,0,0,0,0,0,0,0,0,0,0,0,0,0,0,0,0,0,0,0,0,0,0,0,0,0,0,0,0,0,0,0,0,0,0,0,0,0,0,0,0,0,0,0,0,-0.5415,-0.5414,0,-0.5394,-0.5393,-0.5393,-0.5377,-0.5377,-0.5377,-0.5377,-0.5355,-0.5355,-0.5354,0,0,0,0,0,0,0,0,0,0,0,0,0,-0.544,-0.544,-0.5415,-0.5414,-0.5414,-0.5394,-0.5393,-0.5393,-0.5377,-0.5377,-0.5377,-0.5377,-0.5355,-0.5355,-0.5354,0,0,0,0,0,0,0,0,0,0,0,0,0,-0.5425,-0.544,-0.5415,-0.5404,-0.5403,-0.5394,-0.5393,-0.5393,-0.5377,-0.5377,-0.5377,-0.5377,-0.5355,-0.5355,-0.5354,-0.5354,0,0,-0.5352,-0.5352,0,0,0,0,0,0,0,0,-0.5426,-0.5424,-0.5406,-0.5404,-0.5403,-0.5388,-0.5394,-0.538,-0.5377,-0.5387,-0.5377,-0.5376,-0.5366,-0.5365,-0.5361,-0.5353,-0.5353,-0.5352,-0.5352,-0.5351,-0.5351,0,0,0,0,0,0,0,-0.5427,-0.5425,-0.5406,-0.5405,-0.5404,-0.5399,-0.5397,-0.5391,-0.5378,-0.5386,-0.5385,-0.5382,-0.5365,-0.5362,-0.536,-0.5352,-0.5352,-0.5352,-0.5351,-0.5351,-0.5341,-0.5342,0,0,0,0,0,0,-0.543,-0.5426,-0.5407,-0.5406,-0.5414,-0.5399,-0.5397,-0.5393,-0.5378,-0.5376,-0.5383,-0.5382,-0.5363,-0.5361,-0.536,-0.5358,-0.5351,-0.5351,-0.535,-0.5341,-0.5341,-0.5342,0,0,0,0,0,0,-0.543,-0.5428,-0.5408,-0.5415,-0.5412,-0.5399,-0.5395,-0.5393,-0.5389,-0.5375,-0.5373,-0.5382,-0.5363,-0.5361,-0.5355,-0.5357,-0.535,-0.535,-0.5341,-0.5341,-0.5342,-0.5355,0,0,0,0,0,0,-0.5431,-0.5429,-0.5429,-0.5416,-0.5412,-0.5404,-0.5395,-0.5392,-0.5388,-0.5387,-0.5374,-0.5371,-0.5362,-0.5356,-0.5355,-0.5356,-0.5349,-0.5341,-0.5341,-0.5342,-0.5354,-0.5356,-0.5357,0,0,0,0,0,-0.5432,-0.5434,-0.5429,-0.5427,-0.5412,-0.5405,-0.5403,-0.5392,-0.5388,-0.5388,-0.5379,-0.5372,-0.5357,-0.5356,-0.5354,-0.5355,-0.5341,-0.5341,-0.5341,-0.5354,-0.5355,-0.5357,0,0,0,0,0,0,-0.5449,-0.5432,-0.5427,-0.5424,-0.5416,-0.5402,-0.5402,-0.5394,-0.5387,-0.5386,-0.5374,-0.5371,-0.5367,-0.536,-0.536,-0.5353,-0.5348,-0.5348,-0.5358,-0.5359,-0.536,-0.5362,-0.5349,0,0,0,0,0,-0.5452,-0.5447,-0.5433,-0.5432,-0.5428,-0.5416,-0.5412,-0.5404,-0.5395,-0.5392,-0.5382,-0.5374,-0.5367,-0.5363,-0.5356,-0.5353,-0.5349,-0.5352,-0.5354,-0.5355,-0.5355,-0.5351,-0.5352,-0.5343,-0.5343,-0.5343,0,0,-0.5459,-0.5449,-0.5447,-0.5435,-0.5428,-0.5422,-0.5413,-0.5408,-0.5404,-0.5391,-0.5385,-0.5378,-0.5367,-0.5363,-0.536,-0.5357,-0.5356,-0.5355,-0.5356,-0.5356,-0.5352,-0.5353,-0.5353,-0.5343,-0.5343,-0.5343,0,0,-0.5469,-0.5461,-0.5459,-0.5452,-0.544,-0.5432,-0.5431,-0.5418,-0.5412,-0.5406,-0.5396,-0.539,-0.5379,-0.5371,-0.5366,-0.537,-0.5363,-0.5368,-0.5375,-0.5371,-0.5372,-0.5373,-0.5373,-0.5374,-0.5369,-0.5369,-0.5369,0,-0.5479,-0.5471,-0.5459,-0.5454,-0.5449,-0.5436,-0.5433,-0.5426,-0.5414,-0.541,-0.5406,-0.5391,-0.5383,-0.5376,-0.5376,-0.5373,-0.5371,-0.537,-0.5373,-0.5373,-0.5374,-0.5374,-0.5375,-0.5369,-0.5369,-0.5369,-0.5369,0,-0.5483,-0.5478,-0.5477,-0.5464,-0.5458,-0.5455,-0.5442,-0.5437,-0.543,-0.5421,-0.5414,-0.5404,-0.5394,-0.5391,-0.5385,-0.5383,-0.5381,-0.5375,-0.537,-0.5376,-0.5376,-0.5376,-0.537,-0.537,-0.537,-0.537,0,0,-0.5504,-0.5483,-0.5483,-0.5477,-0.5462,-0.5457,-0.5452,-0.5442,-0.5438,-0.5429,-0.5424,-0.5414,-0.5408,-0.5402,-0.5393,-0.5391,-0.5393,-0.5385,-0.5385,-0.5386,-0.5389,-0.5393,-0.5394,-0.5388,-0.5388,-0.5388,-0.539,0,-0.5511,-0.5502,-0.549,-0.5485,-0.5478,-0.5465,-0.5461,-0.5451,-0.5442,-0.5435,-0.5426,-0.5418,-0.5412,-0.5407,-0.5404,-0.5394,-0.5394,-0.5393,-0.5383,-0.5382,-0.5386,-0.5394,-0.5399,-0.5401,-0.539,-0.539,-0.539,0,-0.5519,-0.551,-0.5503,-0.5488,-0.5485,-0.5481,-0.5469,-0.5463,-0.5451,-0.5445,-0.5437,-0.5428,-0.5421,-0.5415,-0.5405,-0.5405,-0.54,-0.5394,-0.5393,-0.5392,-0.5387,-0.5392,-0.5402,-0.5402,-0.539,-0.539,-0.539,0,-0.5534,-0.552,-0.5514,-0.5508,-0.549,-0.5488,-0.548,-0.5468,-0.5462,-0.5452,-0.5447,-0.5437,-0.5431,-0.5422,-0.541,-0.5407,-0.54,-0.5394,-0.5394,-0.5395,-0.5394,-0.5394,-0.5402,-0.5391,-0.5391,-0.5391,-0.5391,0,-0.5543,-0.5539,-0.552,-0.5516,-0.5511,-0.5497,-0.5492,-0.5483,-0.5472,-0.5466,-0.5454,-0.5448,-0.5432,-0.5424,-0.5414,-0.5406,-0.5404,-0.5398,-0.5396,-0.5399,-0.54,-0.5396,-0.5395,-0.5391,-0.5391,-0.5391,-0.5391,0,-0.5559,-0.5546,-0.5538,-0.5521,-0.5517,-0.5514,-0.5499,-0.5494,-0.5484,-0.5476,-0.5473,-0.5457,-0.5447,-0.5434,-0.542,-0.5413,-0.5406,-0.5402,-0.541,-0.5408,-0.5409,-0.5409,-0.5414,-0.5414,-0.5403,-0.5403,-0.5404,0,-0.5565,-0.5562,-0.5544,-0.5539,-0.5531,-0.5523,-0.5517,-0.5502,-0.5496,-0.5481,-0.5478,-0.5466,-0.5457,-0.5441,-0.5428,-0.5416,-0.5412,-0.5414,-0.541,-0.5413,-0.5411,-0.5411,-0.541,-0.5416,-0.5416,-0.5416,-0.5416,0,-0.5578,-0.5571,-0.5562,-0.5551,-0.5543,-0.5533,-0.5523,-0.5519,-0.5502,-0.5495,-0.5485,-0.5477,-0.5461,-0.545,-0.5437,-0.5428,-0.5419,-0.5417,-0.5416,-0.542,-0.5425,-0.5421,-0.5412,-0.5417,-0.5417,-0.5417,-0.5417,-0.5417,-0.5589,-0.5585,-0.5571,-0.5561,-0.5552,-0.5542,-0.5536,-0.5525,-0.5515,-0.5502,-0.5494,-0.5483,-0.5469,-0.545,-0.5441,-0.5432,-0.5429,-0.5428,-0.5428,-0.5428,-0.5428,-0.5426,-0.543,-0.543,-0.5429,-0.5429,-0.5429,0,-0.5601,-0.5591,-0.5582,-0.5567,-0.5559,-0.555,-0.5538,-0.5531,-0.5522,-0.551,-0.55,-0.5487,-0.5475,-0.546,-0.5447,-0.5443,-0.5438,-0.544,-0.544,-0.5438,-0.5432,-0.5434,-0.5444,-0.5444,-0.5444,-0.5444,-0.5444,-0.5444,-0.5606,-0.5598,-0.5589,-0.5576,-0.5566,-0.5555,-0.5548,-0.5539,-0.5529,-0.5514,-0.5504,-0.5495,-0.5481,-0.5467,-0.5455,-0.5451,-0.5447,-0.545,-0.5444,-0.544,-0.5438,-0.5437,-0.5439,-0.5449,-0.5449,-0.545,-0.545,-0.545]},{"header":{"parameterUnit":"m.s-1","parameterCategory":1,"la1":30.2991,"la2":30.254,"lo1":-89.0895,"lo2":-89.0444,"dy":0.0017,"dx":0.0017,"nx":28,"ny":28,"refTime":"2025-08-02T21:00:00:Z","depth":0,"parameterNumber":3,"parameterNumberName":"V-component_of_WINDS"},"data":[0,0,0,0,0,0,0,0,0,0,0,0,0,0,0,0,0,0,0,0,0,0,0,0,0,0,0,0,0,0,0,0,0,0,0,0,0,0,0,0,0,0,0,0,0,0,0,0,0,0,0,0,0,0,0,0,0,0,-0.2211,-0.2209,0,-0.2049,-0.2047,-0.2046,-0.1981,-0.1982,-0.1982,-0.1983,-0.1816,-0.1811,-0.1807,0,0,0,0,0,0,0,0,0,0,0,0,0,-0.2462,-0.2458,-0.2211,-0.2209,-0.2207,-0.205,-0.2047,-0.2045,-0.1981,-0.1982,-0.1982,-0.1983,-0.1818,-0.1812,-0.1806,0,0,0,0,0,0,0,0,0,0,0,0,0,-0.2332,-0.2456,-0.2212,-0.2156,-0.215,-0.205,-0.2047,-0.2045,-0.1981,-0.1982,-0.1982,-0.1983,-0.182,-0.1813,-0.1805,-0.1748,0,0,-0.1783,-0.178,0,0,0,0,0,0,0,0,-0.2339,-0.2323,-0.2167,-0.216,-0.2152,-0.2036,-0.2075,-0.1945,-0.1981,-0.2045,-0.1983,-0.1983,-0.1889,-0.1876,-0.1844,-0.1741,-0.1733,-0.1783,-0.1778,-0.1775,-0.1773,0,0,0,0,0,0,0,-0.2349,-0.2329,-0.2147,-0.2164,-0.2156,-0.2139,-0.2121,-0.205,-0.1965,-0.204,-0.2035,-0.2016,-0.1885,-0.1851,-0.184,-0.1731,-0.1783,-0.1776,-0.1772,-0.1769,-0.1569,-0.1568,0,0,0,0,0,0,-0.2367,-0.2337,-0.2152,-0.2142,-0.2249,-0.2134,-0.2114,-0.2073,-0.1966,-0.195,-0.2016,-0.2014,-0.1863,-0.1848,-0.1834,-0.1758,-0.1775,-0.1768,-0.1764,-0.157,-0.1569,-0.1568,0,0,0,0,0,0,-0.2373,-0.2351,-0.2159,-0.2238,-0.2213,-0.2129,-0.2083,-0.2069,-0.2036,-0.1948,-0.1933,-0.1997,-0.1863,-0.1844,-0.1769,-0.1751,-0.1765,-0.1759,-0.1571,-0.157,-0.1568,-0.1607,0,0,0,0,0,0,-0.238,-0.2354,-0.2332,-0.2238,-0.2209,-0.2098,-0.2082,-0.2066,-0.2023,-0.2019,-0.1926,-0.1912,-0.1862,-0.1781,-0.1762,-0.1741,-0.1753,-0.1573,-0.1571,-0.1569,-0.1607,-0.1607,-0.1607,0,0,0,0,0,-0.2389,-0.235,-0.2331,-0.2309,-0.218,-0.2097,-0.208,-0.2025,-0.2022,-0.1999,-0.1942,-0.1915,-0.1756,-0.1773,-0.1752,-0.1729,-0.1573,-0.1571,-0.1569,-0.1607,-0.1607,-0.1607,0,0,0,0,0,0,-0.2444,-0.2337,-0.2315,-0.2244,-0.218,-0.2087,-0.2056,-0.2027,-0.1962,-0.1961,-0.1894,-0.1874,-0.1804,-0.1759,-0.178,-0.1667,-0.1663,-0.1656,-0.1699,-0.1698,-0.1698,-0.171,-0.1747,0,0,0,0,0,-0.2447,-0.239,-0.2299,-0.2245,-0.2215,-0.2141,-0.2103,-0.2065,-0.1996,-0.1969,-0.1907,-0.1841,-0.1776,-0.1735,-0.167,-0.16,-0.1578,-0.1574,-0.1574,-0.1574,-0.1569,-0.1526,-0.1523,-0.1561,-0.1561,-0.1561,0,0,-0.2455,-0.2389,-0.2357,-0.2255,-0.2201,-0.2142,-0.2119,-0.2058,-0.2013,-0.196,-0.1885,-0.1837,-0.1759,-0.1686,-0.1651,-0.1646,-0.1554,-0.1572,-0.1573,-0.1567,-0.1524,-0.152,-0.1517,-0.1559,-0.156,-0.156,0,0,-0.2437,-0.2383,-0.2331,-0.2277,-0.2195,-0.2146,-0.2134,-0.2044,-0.201,-0.1934,-0.1892,-0.1837,-0.1727,-0.1672,-0.163,-0.1589,-0.156,-0.157,-0.157,-0.1529,-0.1526,-0.1523,-0.1507,-0.1502,-0.1565,-0.1565,-0.1565,0,-0.2456,-0.2366,-0.2308,-0.2248,-0.2203,-0.2152,-0.2097,-0.2048,-0.195,-0.192,-0.1916,-0.1775,-0.1719,-0.1631,-0.1621,-0.1589,-0.1571,-0.158,-0.1531,-0.1528,-0.1524,-0.1507,-0.1502,-0.1567,-0.1567,-0.1566,-0.1566,0,-0.2393,-0.2331,-0.2298,-0.2204,-0.2156,-0.2099,-0.2031,-0.1988,-0.1954,-0.1905,-0.1827,-0.1757,-0.1677,-0.1653,-0.162,-0.156,-0.1559,-0.1545,-0.1539,-0.1523,-0.1506,-0.15,-0.1569,-0.1568,-0.1568,-0.1568,0,0,-0.2407,-0.2279,-0.2268,-0.2223,-0.2128,-0.2079,-0.2019,-0.194,-0.1904,-0.1837,-0.1784,-0.1691,-0.1676,-0.1628,-0.1588,-0.1552,-0.1521,-0.1541,-0.1538,-0.1538,-0.1448,-0.1459,-0.1453,-0.1501,-0.15,-0.1499,-0.1454,0,-0.2376,-0.2267,-0.2211,-0.2126,-0.2066,-0.2015,-0.1962,-0.1898,-0.185,-0.1792,-0.1738,-0.1672,-0.1658,-0.1629,-0.1591,-0.1533,-0.1502,-0.1535,-0.145,-0.1448,-0.1471,-0.1444,-0.1456,-0.1418,-0.1447,-0.1446,-0.1445,0,-0.2326,-0.2258,-0.2167,-0.2077,-0.2049,-0.2004,-0.1925,-0.187,-0.1795,-0.1762,-0.1708,-0.1667,-0.1601,-0.16,-0.1506,-0.153,-0.1492,-0.1458,-0.1455,-0.1444,-0.1445,-0.1432,-0.1404,-0.1398,-0.1435,-0.1436,-0.1436,0,-0.2343,-0.223,-0.216,-0.2123,-0.2016,-0.1985,-0.1939,-0.1864,-0.1819,-0.175,-0.172,-0.1645,-0.1603,-0.1545,-0.1485,-0.149,-0.1396,-0.1391,-0.1366,-0.1367,-0.1348,-0.135,-0.1313,-0.1325,-0.1325,-0.1325,-0.1325,0,-0.2314,-0.2259,-0.2166,-0.2123,-0.2059,-0.1995,-0.1934,-0.1883,-0.1817,-0.1762,-0.1713,-0.1663,-0.1587,-0.1526,-0.1479,-0.1407,-0.1389,-0.136,-0.1347,-0.1363,-0.1367,-0.1337,-0.1338,-0.1324,-0.1324,-0.1324,-0.1325,0,-0.2323,-0.2258,-0.2178,-0.2082,-0.2057,-0.2014,-0.1932,-0.1887,-0.1836,-0.1767,-0.1747,-0.1666,-0.1592,-0.1526,-0.1429,-0.1396,-0.1323,-0.1308,-0.1348,-0.1341,-0.1319,-0.1322,-0.126,-0.1248,-0.1271,-0.1271,-0.127,0,-0.2308,-0.2265,-0.2164,-0.2124,-0.2078,-0.2014,-0.1968,-0.1901,-0.1855,-0.1764,-0.173,-0.1652,-0.1586,-0.147,-0.1402,-0.1326,-0.1309,-0.1292,-0.1297,-0.1314,-0.1307,-0.131,-0.1304,-0.1293,-0.1293,-0.1293,-0.1293,0,-0.2288,-0.2258,-0.2193,-0.2115,-0.2061,-0.1997,-0.1932,-0.1901,-0.1822,-0.1772,-0.1695,-0.1644,-0.1543,-0.1466,-0.1382,-0.1334,-0.1299,-0.1292,-0.1282,-0.1297,-0.1322,-0.1306,-0.1348,-0.1294,-0.1294,-0.1294,-0.1294,-0.1294,-0.2284,-0.2242,-0.2164,-0.2092,-0.2036,-0.1975,-0.1928,-0.187,-0.1805,-0.1717,-0.1682,-0.1603,-0.1526,-0.141,-0.1361,-0.1298,-0.1291,-0.1277,-0.1273,-0.1271,-0.1273,-0.1332,-0.1282,-0.1282,-0.1282,-0.1282,-0.1282,0,-0.226,-0.2207,-0.2142,-0.2051,-0.1994,-0.1967,-0.1892,-0.1846,-0.1777,-0.1709,-0.1644,-0.1555,-0.1479,-0.1404,-0.1324,-0.1287,-0.1269,-0.1268,-0.127,-0.1259,-0.1284,-0.13,-0.1284,-0.1284,-0.1284,-0.1284,-0.1284,-0.1284,-0.2242,-0.2169,-0.2128,-0.2026,-0.1972,-0.1895,-0.1854,-0.1797,-0.1742,-0.1644,-0.158,-0.1532,-0.146,-0.1373,-0.1302,-0.1282,-0.1254,-0.1257,-0.1232,-0.1257,-0.1257,-0.1258,-0.1273,-0.1252,-0.1252,-0.1212,-0.1212,-0.1212]}]]